Location: El Limón
(10.3059°N, 67.6321°W)
Time: 04:07:35
(UTC+00:00)

Cosmos 1400 Rocket - Pass Details

Date: 14 April 2024
Orbit: 502 x 544 km, 81.2° (Epoch: 21 May)

Event Time Altitude Azimuth Distance (km) Brightness Sun altitude
Rises 09:54:45 0° 179° (S) 2,589 6.1 -7.0°
Reaches altitude 10° 09:56:52 10° 176° (S) 1,707 5.3 -6.5°
Maximum altitude 10:00:34 62° 95° (E) 568 3.3 -5.6°
Drops below altitude 10° 10:04:18 10° 14° (NNE) 1,721 5.7 -4.7°
Sets 10:06:27 0° 11° (N) 2,612 6.6 -4.2°
